星链-31056 (STARLINK-31056 )

导读 | 星芒AI

STARLINK-31056 是 SpaceX Starlink 卫星互联网项目中的一颗低轨通信卫星。它属于 Starlink 项目第二批组网卫星,旨在为全球用户提供高速、低延迟的宽带互联网服务。该卫星采用可重复使用的火箭发射入轨,运行在约 550 公里的近地轨道,配备先进通信设备,支持星间激光链路,提升网络效率。作为 Starlink 网络的重要组成部分,它有助于扩大覆盖范围,特别是在偏远和网络基础设施薄弱的地区。

基本信息
目录编号:
58550
目录名称:
STARLINK-31056
国际标识:
2023-192V
轨道中心:
EARTH
卫星名称:
星链-31056
卫星全名:
星链-31056 (STARLINK-31056 )
卫星状态:
在轨 (已飞行742 天)
发射日期:
2023-12-08 UTC
国别 :
美国 (US)
星等 :
--
轨道信息
数据来源 国际轨道数据
星历时间: 2025-12-18T20:58:38+0800
1天前
查看轨道信息
半长轴: 6853.364km
偏心率: 0.0000912
轨道倾角: 53.161°
近地点辐角 88.006°
升交点赤经 79.492°
平近点角 272.105°
近地点: 474.603km
远地点: 475.855km
周期: 94.106分钟
每日圈数: 15.301961
详细信息
固有亮度:
5
最大亮度:
0.3
卫星平台:
Starlink v2.0 mini
覆盖范围:
全球
运营商:
太空探索技术公司
运营商所在国:
美国
制造商(研发单位):
太空探索技术公司
制造商所在国:
美国
使用方式:
暂无
卫星简介
星链(Starlink)计划是由太空探索技术公司(SpaceX)提出的一个巨型低轨卫星互联网星座项目,计划在2019年至2024年间在太空搭建由约1.2万颗卫星组成的“星链”网络,其中1584颗将部署在地球上空550千米处的近地轨道,并从2020年开始工作。该卫星仍在工作。
2D轨道图
3D轨道图
轨道高度分析图
轨道倾角分析图
轨道综合分析图
查看轨道综合分析图